Find Starlink 11622

NORAD ID: 63187 Int'l Des: 2025-048 Owner: SPXS Country: US Constellation: starlink operational
又名: STARLINK-11622 [DTC] celestrak
LEOCIRCULAR

当前视图

正在加载3D地球...

About Starlink 11622

Starlink 11622 (NORAD 63187) is a starlink constellation satellite (v2 mini d2c) launched Mar 13, 2025 by SPXS of US. It operates in LEO, CIRCULAR orbit with a mass of 960.00 kg.

即将过境

Passes for default location (London). Set your location on the main map for personalized predictions.

高度历史

Loading altitude history...

两行轨道根数

1 63187U 25048E 26234.87579391 .00091891 00000-0 71133-3 0 9996
2 63187 43.0011 38.5672 0001777 269.5620 90.5044 15.70852769 84654
Epoch: Aug 22, 2026 • Age: 29 hours

当前状态

高度 357.4 km
远地点 / 近地点 N/A
速度 7.70 km/s
星下点 31.26°N, 65.91°E
发射日期 Mar 13, 2025
运行时间 1.4 years
类型 internet

技术详情

分类 Payload
质量 960.00 kg
干质量 910.00 kg
总质量 960.00 kg
长度 0.30 m
直径 4.10 m
跨度 29.00 m
形状 Box + pan
制造商 SPXS
平台类型 Starlink V2MD
阶段状态 In Orbit
所有者/国家 SPXS/US

Most Searched